| time (UTC) | temp F | wind direction | speed knots | gust knots | rain 1hr in | rain 24hr in | rain mn in | humidity % | barometer mb |
| 20260906072107 | 65 | 74 | 0.0 | 0.9 | 0.00 | 0.00 | 0.00 | 88 | 1021.1 |
| 20260906071603 | 65 | 296 | 1.7 | 2.6 | 0.00 | 0.00 | 0.00 | 88 | 1021.1 |
| 20260906071103 | 65 | 73 | 0.9 | 0.9 | 0.00 | 0.00 | 0.00 | 88 | 1021.1 |
| 20260906070600 | 65 | 42 | 0.9 | 0.9 | 0.00 | 0.00 | 0.00 | 88 | 1021.1 |
| 20260906070055 | 65 | 44 | 0.9 | 0.9 | 0.00 | 0.00 | 0.00 | 88 | 1021.1 |
| 20260906065554 | 65 | 75 | 0.0 | 0.9 | 0.00 | 0.00 | 0.00 | 88 | 1021.1 |
| 20260906065050 | 65 | 70 | 0.0 | 0.0 | 0.00 | 0.00 | 0.00 | 88 | 1021.2 |
| 20260906064546 | 65 | 70 | 0.0 | 0.0 | 0.00 | 0.00 | 0.00 | 88 | 1021.1 |
| 20260906064040 | 65 | 65 | 0.0 | 0.0 | 0.00 | 0.00 | 0.00 | 88 | 1021.4 |
| 20260906063536 | 65 | 50 | 0.9 | 0.9 | 0.00 | 0.00 | 0.00 | 88 | 1021.5 |
| 20260906063032 | 65 | 61 | 0.0 | 0.0 | 0.00 | 0.00 | 0.00 | 87 | 1021.8 |
| 20260906062527 | 65 | 61 | 0.0 | 0.0 | 0.00 | 0.00 | 0.00 | 87 | 1022.0 |
| 20260906062021 | 65 | 69 | 0.0 | 0.0 | 0.00 | 0.00 | 0.00 | 88 | 1021.8 |
| 20260906061517 | 64 | 63 | 0.0 | 0.0 | 0.00 | 0.00 | 0.00 | 89 | 1022.0 |
| 20260906061016 | 64 | 82 | 0.0 | 0.0 | 0.00 | 0.00 | 0.00 | 89 | 1021.9 |
| 20260906060513 | 64 | 98 | 0.0 | 0.0 | 0.00 | 0.00 | 0.00 | 88 | 1022.0 |
| 20260906060010 | 64 | 98 | 0.0 | 0.0 | 0.00 | 0.00 | 0.00 | 88 | 1021.6 |
| 20260906055505 | 64 | 70 | 0.0 | 0.0 | 0.00 | 0.00 | 0.00 | 87 | 1021.9 |
| 20260906055001 | 64 | 80 | 0.0 | 0.0 | 0.00 | 0.00 | 0.00 | 88 | 1022.0 |
| 20260906054501 | 64 | 70 | 0.0 | 0.0 | 0.00 | 0.00 | 0.00 | 88 | 1022.0 |
| 20260906053956 | 64 | 69 | 0.0 | 0.0 | 0.00 | 0.00 | 0.00 | 88 | 1022.1 |
| 20260906053453 | 64 | 70 | 0.0 | 0.0 | 0.00 | 0.00 | 0.00 | 88 | 1022.0 |
| 20260906052948 | 64 | 70 | 0.0 | 0.0 | 0.00 | 0.00 | 0.00 | 88 | 1022.1 |
| 20260906052444 | 64 | 75 | 0.0 | 0.0 | 0.00 | 0.00 | 0.00 | 88 | 1022.1 |
| 20260906051941 | 64 | 70 | 0.0 | 0.9 | 0.00 | 0.00 | 0.00 | 89 | 1022.1 |
| 20260906051436 | 64 | 54 | 0.0 | 0.0 | 0.00 | 0.00 | 0.00 | 90 | 1022.2 |
| 20260906050931 | 64 | 75 | 0.0 | 0.0 | 0.00 | 0.00 | 0.00 | 90 | 1022.2 |
| 20260906050431 | 64 | 75 | 0.0 | 0.0 | 0.00 | 0.00 | 0.00 | 90 | 1022.3 |
| 20260906045930 | 64 | 62 | 0.0 | 0.0 | 0.00 | 0.00 | 0.00 | 89 | 1022.2 |
| 20260906045429 | 64 | 70 | 0.0 | 0.0 | 0.00 | 0.00 | 0.00 | 89 | 1022.2 |
| 20260906044926 | 64 | 70 | 0.0 | 0.0 | 0.00 | 0.00 | 0.00 | 89 | 1022.3 |
| 20260906044426 | 64 | 62 | 0.0 | 0.0 | 0.00 | 0.00 | 0.00 | 90 | 1022.4 |
| 20260906043921 | 64 | 63 | 0.0 | 0.0 | 0.00 | 0.00 | 0.00 | 90 | 1022.3 |
| 20260906043417 | 64 | 66 | 0.9 | 0.9 | 0.00 | 0.00 | 0.00 | 89 | 1022.4 |
| 20260906042912 | 64 | 64 | 0.0 | 0.0 | 0.00 | 0.00 | 0.00 | 89 | 1022.1 |
| 20260906042412 | 64 | 64 | 0.0 | 0.0 | 0.00 | 0.00 | 0.00 | 89 | 1022.3 |
| 20260906041907 | 64 | 65 | 0.0 | 0.0 | 0.00 | 0.00 | 0.00 | 89 | 1022.2 |
| 20260906041403 | 64 | 63 | 0.9 | 0.9 | 0.00 | 0.00 | 0.00 | 89 | 1022.2 |
| 20260906040902 | 64 | 69 | 0.0 | 0.0 | 0.00 | 0.00 | 0.00 | 90 | 1022.1 |
| 20260906040358 | 64 | 73 | 0.0 | 0.0 | 0.00 | 0.00 | 0.00 | 90 | 1022.2 |
| 20260906035853 | 64 | 345 | 0.0 | 0.9 | 0.00 | 0.06 | 0.06 | 91 | 1022.6 |
| 20260906035348 | 64 | 62 | 0.0 | 0.0 | 0.00 | 0.06 | 0.06 | 92 | 1022.4 |
| 20260906034844 | 64 | 62 | 0.0 | 0.0 | 0.00 | 0.06 | 0.06 | 92 | 1022.4 |
| 20260906034344 | 64 | 63 | 0.9 | 0.9 | 0.00 | 0.06 | 0.06 | 92 | 1022.7 |
| 20260906033840 | 64 | 70 | 0.0 | 0.0 | 0.00 | 0.06 | 0.06 | 92 | 1022.6 |
| 20260906033339 | 64 | 70 | 0.0 | 0.0 | 0.00 | 0.06 | 0.06 | 92 | 1023.0 |
| 20260906032836 | 64 | 81 | 0.0 | 0.0 | 0.00 | 0.06 | 0.06 | 92 | 1022.8 |
| 20260906032332 | 64 | 74 | 0.0 | 0.0 | 0.00 | 0.06 | 0.06 | 92 | 1023.0 |
| 20260906031832 | 64 | 18 | 0.9 | 1.7 | 0.00 | 0.06 | 0.06 | 92 | 1022.6 |
| 20260906031327 | 64 | 66 | 0.0 | 0.0 | 0.00 | 0.06 | 0.06 | 92 | 1022.8 |
| 20260906030828 | 65 | 72 | 0.9 | 0.9 | 0.00 | 0.06 | 0.06 | 92 | 1022.8 |
| 20260906030323 | 65 | 59 | 1.7 | 1.7 | 0.00 | 0.06 | 0.06 | 91 | 1022.7 |
| 20260906025823 | 65 | 43 | 0.9 | 0.9 | 0.00 | 0.06 | 0.06 | 91 | 1022.7 |
| 20260906025317 | 65 | 70 | 3.5 | 3.5 | 0.00 | 0.06 | 0.06 | 91 | 1022.4 |
| 20260906024816 | 65 | 36 | 0.9 | 1.7 | 0.00 | 0.06 | 0.06 | 91 | 1022.4 |
| 20260906024315 | 65 | 89 | 0.9 | 0.9 | 0.00 | 0.06 | 0.06 | 90 | 1022.4 |
| 20260906023811 | 65 | 66 | 0.0 | 0.0 | 0.00 | 0.06 | 0.06 | 89 | 1022.4 |
| 20260906023306 | 65 | 68 | 0.0 | 0.0 | 0.00 | 0.06 | 0.06 | 88 | 1022.4 |
| 20260906022801 | 65 | 75 | 0.0 | 0.0 | 0.00 | 0.06 | 0.06 | 88 | 1022.7 |
| 20260906022257 | 65 | 90 | 0.9 | 0.9 | 0.00 | 0.06 | 0.06 | 87 | 1022.4 |
| 20260906021753 | 65 | 78 | 0.0 | 0.0 | 0.00 | 0.06 | 0.06 | 87 | 1022.7 |
| 20260906021251 | 65 | 88 | 0.0 | 0.0 | 0.00 | 0.06 | 0.06 | 87 | 1022.7 |
| 20260906020746 | 65 | 56 | 0.9 | 0.9 | 0.00 | 0.06 | 0.06 | 87 | 1022.7 |
| 20260906020246 | 65 | 79 | 0.0 | 0.0 | 0.00 | 0.06 | 0.06 | 86 | 1022.4 |
| 20260906015741 | 65 | 79 | 0.0 | 0.0 | 0.00 | 0.06 | 0.06 | 87 | 1022.4 |
| 20260906015240 | 65 | 85 | 0.0 | 0.0 | 0.00 | 0.06 | 0.06 | 88 | 1022.4 |
| 20260906014740 | 65 | 72 | 0.0 | 0.0 | 0.00 | 0.06 | 0.06 | 88 | 1022.3 |
| 20260906014235 | 65 | 70 | 0.0 | 0.0 | 0.00 | 0.06 | 0.06 | 88 | 1022.4 |
| 20260906013731 | 65 | 30 | 1.7 | 1.7 | 0.00 | 0.06 | 0.06 | 88 | 1022.7 |
| 20260906013231 | 65 | 8 | 1.7 | 2.6 | 0.00 | 0.06 | 0.06 | 88 | 1022.4 |
| 20260906012726 | 65 | 59 | 0.9 | 0.9 | 0.00 | 0.06 | 0.06 | 88 | 1022.3 |
| 20260906012221 | 65 | 61 | 0.9 | 0.9 | 0.00 | 0.06 | 0.06 | 88 | 1022.6 |
| 20260906011717 | 65 | 74 | 0.9 | 0.9 | 0.00 | 0.06 | 0.06 | 88 | 1022.3 |
| 20260906011212 | 65 | 42 | 0.9 | 0.9 | 0.00 | 0.06 | 0.06 | 88 | 1022.1 |
| 20260906010707 | 65 | 78 | 0.0 | 0.0 | 0.00 | 0.06 | 0.06 | 87 | 1021.8 |
| 20260906010204 | 65 | 346 | 2.6 | 3.5 | 0.00 | 0.06 | 0.06 | 87 | 1021.9 |
| 20260906005703 | 65 | 355 | 0.9 | 1.7 | 0.00 | 0.06 | 0.06 | 87 | 1022.0 |
| 20260906005202 | 65 | 73 | 0.9 | 1.7 | 0.00 | 0.06 | 0.06 | 87 | 1022.0 |
| 20260906004701 | 65 | 88 | 0.9 | 1.7 | 0.00 | 0.06 | 0.06 | 86 | 1021.8 |
| 20260906004156 | 65 | 195 | 1.7 | 1.7 | 0.00 | 0.06 | 0.06 | 85 | 1021.8 |
| 20260906003652 | 65 | 59 | 0.0 | 0.0 | 0.00 | 0.06 | 0.06 | 85 | 1021.8 |
| 20260906003147 | 65 | 64 | 1.7 | 1.7 | 0.00 | 0.06 | 0.06 | 84 | 1021.8 |
| 20260906002642 | 65 | 333 | 2.6 | 2.6 | 0.00 | 0.06 | 0.06 | 84 | 1021.5 |
| 20260906002136 | 65 | 73 | 0.9 | 0.9 | 0.00 | 0.06 | 0.06 | 83 | 1021.5 |
| 20260906001632 | 65 | 87 | 0.9 | 1.7 | 0.00 | 0.06 | 0.06 | 83 | 1021.4 |
| 20260906001132 | 65 | 57 | 1.7 | 1.7 | 0.00 | 0.06 | 0.06 | 83 | 1021.6 |
| 20260906000628 | 65 | 74 | 0.0 | 0.0 | 0.00 | 0.06 | 0.06 | 83 | 1021.4 |
| 20260906000123 | 65 | 326 | 1.7 | 2.6 | 0.00 | 0.06 | 0.06 | 82 | 1021.5 |
| 20260905235621 | 65 | 74 | 0.9 | 0.9 | 0.00 | 0.06 | 0.06 | 82 | 1021.1 |
| 20260905235117 | 66 | 66 | 0.0 | 0.0 | 0.00 | 0.06 | 0.06 | 81 | 1021.3 |
| 20260905234612 | 66 | 61 | 0.9 | 0.9 | 0.00 | 0.06 | 0.06 | 81 | 1021.5 |
| 20260905234108 | 67 | 79 | 0.0 | 0.9 | 0.00 | 0.06 | 0.06 | 80 | 1021.6 |
| 20260905233608 | 68 | 64 | 1.7 | 3.5 | 0.00 | 0.06 | 0.06 | 78 | 1021.5 |
| 20260905233102 | 68 | 327 | 1.7 | 3.5 | 0.00 | 0.06 | 0.06 | 76 | 1021.4 |
| 20260905232557 | 69 | 89 | 0.0 | 0.0 | 0.00 | 0.06 | 0.06 | 75 | 1021.4 |
| 20260905232053 | 69 | 261 | 3.5 | 6.1 | 0.00 | 0.06 | 0.06 | 75 | 1021.6 |
| 20260905231548 | 69 | 337 | 1.7 | 1.7 | 0.00 | 0.06 | 0.06 | 75 | 1021.6 |
| 20260905231044 | 70 | 12 | 2.6 | 3.5 | 0.00 | 0.06 | 0.06 | 75 | 1021.5 |
| 20260905230544 | 70 | 41 | 2.6 | 2.6 | 0.00 | 0.06 | 0.06 | 75 | 1021.8 |
| 20260905230043 | 70 | 253 | 2.6 | 3.5 | 0.00 | 0.06 | 0.06 | 75 | 1021.4 |
| 20260905225537 | 70 | 68 | 0.9 | 1.7 | 0.00 | 0.06 | 0.06 | 75 | 1021.6 |
| 20260905225033 | 70 | 96 | 0.9 | 0.9 | 0.00 | 0.06 | 0.06 | 76 | 1021.5 |
| 20260905224532 | 71 | 55 | 1.7 | 3.5 | 0.00 | 0.06 | 0.06 | 76 | 1021.6 |
| 20260905224032 | 70 | 80 | 0.9 | 0.9 | 0.00 | 0.06 | 0.06 | 78 | 1022.0 |
| 20260905223530 | 70 | 356 | 5.2 | 6.1 | 0.00 | 0.06 | 0.06 | 77 | 1021.9 |
| 20260905223025 | 70 | 36 | 0.0 | 0.0 | 0.00 | 0.06 | 0.06 | 79 | 1021.9 |
| 20260905222525 | 70 | 291 | 3.5 | 5.2 | 0.00 | 0.06 | 0.06 | 78 | 1021.9 |
| 20260905222020 | 71 | 70 | 0.9 | 1.7 | 0.00 | 0.06 | 0.06 | 79 | 1021.8 |
| 20260905221517 | 70 | 72 | 0.9 | 1.7 | 0.00 | 0.06 | 0.06 | 79 | 1021.6 |
| 20260905221012 | 70 | 280 | 2.6 | 3.5 | 0.00 | 0.06 | 0.06 | 78 | 1021.9 |
| 20260905220508 | 70 | 75 | 2.6 | 3.5 | 0.00 | 0.06 | 0.06 | 78 | 1022.0 |
| 20260905220003 | 71 | 215 | 1.7 | 2.6 | 0.00 | 0.06 | 0.06 | 78 | 1021.9 |
| 20260905215458 | 71 | 17 | 3.5 | 5.2 | 0.00 | 0.06 | 0.06 | 78 | 1021.9 |
| 20260905214954 | 71 | 67 | 1.7 | 2.6 | 0.00 | 0.06 | 0.06 | 77 | 1022.0 |
| 20260905214450 | 71 | 68 | 3.5 | 5.2 | 0.00 | 0.06 | 0.06 | 76 | 1022.0 |
| 20260905213949 | 71 | 79 | 0.9 | 1.7 | 0.00 | 0.06 | 0.06 | 76 | 1021.5 |
| 20260905213446 | 71 | 37 | 4.3 | 7.8 | 0.00 | 0.06 | 0.06 | 76 | 1021.5 |
| 20260905212941 | 71 | 86 | 0.9 | 0.9 | 0.00 | 0.06 | 0.06 | 76 | 1021.8 |
| 20260905212436 | 71 | 26 | 1.7 | 1.7 | 0.00 | 0.06 | 0.06 | 75 | 1021.9 |
| 20260905211934 | 71 | 33 | 4.3 | 6.1 | 0.00 | 0.06 | 0.06 | 75 | 1021.8 |
| 20260905211431 | 71 | 68 | 0.9 | 1.7 | 0.00 | 0.06 | 0.06 | 75 | 1021.8 |
| 20260905210927 | 71 | 75 | 3.5 | 6.1 | 0.00 | 0.06 | 0.06 | 75 | 1021.9 |
| 20260905210427 | 71 | 41 | 1.7 | 1.7 | 0.00 | 0.06 | 0.06 | 74 | 1022.0 |
| 20260905205926 | 71 | 344 | 4.3 | 5.2 | 0.00 | 0.06 | 0.06 | 74 | 1022.0 |
| 20260905205421 | 71 | 345 | 2.6 | 3.5 | 0.00 | 0.06 | 0.06 | 75 | 1021.9 |
| 20260905204920 | 71 | 336 | 3.5 | 5.2 | 0.00 | 0.06 | 0.06 | 74 | 1022.0 |
| 20260905204416 | 71 | 66 | 0.9 | 0.9 | 0.00 | 0.06 | 0.06 | 77 | 1021.9 |
| 20260905203915 | 71 | 332 | 3.5 | 3.5 | 0.00 | 0.06 | 0.06 | 73 | 1021.9 |
| 20260905203410 | 71 | 311 | 3.5 | 3.5 | 0.00 | 0.06 | 0.06 | 76 | 1021.6 |
| 20260905202906 | 71 | 283 | 2.6 | 6.1 | 0.00 | 0.06 | 0.06 | 74 | 1021.8 |
| 20260905202401 | 72 | 301 | 1.7 | 1.7 | 0.00 | 0.06 | 0.06 | 72 | 1021.9 |
| 20260905201856 | 72 | 284 | 5.2 | 7.8 | 0.00 | 0.06 | 0.06 | 70 | 1022.0 |
| 20260905201352 | 72 | 20 | 0.9 | 0.9 | 0.00 | 0.06 | 0.06 | 70 | 1022.0 |
| 20260905200851 | 72 | 40 | 1.7 | 2.6 | 0.00 | 0.06 | 0.06 | 70 | 1021.6 |
| 20260905200348 | 71 | 355 | 4.3 | 5.2 | 0.00 | 0.06 | 0.06 | 69 | 1021.9 |
| 20260905195846 | 71 | 336 | 3.5 | 3.5 | 0.00 | 0.06 | 0.06 | 69 | 1022.0 |
| 20260905195341 | 71 | 9 | 5.2 | 7.0 | 0.00 | 0.06 | 0.06 | 69 | 1022.1 |
| 20260905194837 | 72 | 275 | 3.5 | 3.5 | 0.00 | 0.06 | 0.06 | 69 | 1021.8 |
| 20260905194336 | 71 | 276 | 2.6 | 1.7 | 0.00 | 0.06 | 0.06 | 69 | 1022.0 |
| 20260905193836 | 71 | 9 | 5.2 | 7.0 | 0.00 | 0.06 | 0.06 | 69 | 1021.9 |
| 20260905193330 | 71 | 279 | 2.6 | 3.5 | 0.00 | 0.06 | 0.06 | 71 | 1022.1 |
| 20260905192826 | 69 | 56 | 0.9 | 0.9 | 0.00 | 0.06 | 0.06 | 72 | 1021.5 |
| 20260905192322 | 67 | 35 | 0.9 | 0.9 | 0.00 | 0.06 | 0.06 | 77 | 1021.9 |
| 20260905191821 | 66 | 86 | 0.9 | 0.9 | 0.00 | 0.06 | 0.06 | 81 | 1021.8 |
| 20260905191320 | 66 | 304 | 3.5 | 3.5 | 0.00 | 0.06 | 0.06 | 83 | 1021.9 |
| 20260905190819 | 65 | 52 | 0.9 | 0.9 | 0.00 | 0.06 | 0.06 | 84 | 1022.0 |
| 20260905190319 | 65 | 16 | 1.7 | 1.7 | 0.00 | 0.06 | 0.06 | 86 | 1022.2 |
| 20260905185818 | 64 | 26 | 1.7 | 1.7 | 0.00 | 0.06 | 0.06 | 86 | 1022.1 |
| 20260905185313 | 64 | 39 | 1.7 | 1.7 | 0.00 | 0.06 | 0.06 | 86 | 1022.0 |
| 20260905184812 | 64 | 39 | 2.6 | 2.6 | 0.00 | 0.06 | 0.06 | 85 | 1022.1 |
| 20260905184311 | 64 | 68 | 0.0 | 0.0 | 0.00 | 0.06 | 0.06 | 86 | 1022.2 |
| 20260905183810 | 63 | 62 | 0.9 | 0.9 | 0.00 | 0.06 | 0.06 | 86 | 1022.2 |
| 20260905183306 | 62 | 63 | 0.9 | 0.9 | 0.00 | 0.06 | 0.06 | 87 | 1022.4 |
| 20260905182806 | 62 | 67 | 0.0 | 0.9 | 0.00 | 0.06 | 0.06 | 88 | 1022.2 |
| 20260905182306 | 62 | 73 | 0.9 | 1.7 | 0.00 | 0.06 | 0.06 | 88 | 1022.6 |
| 20260905181801 | 62 | 60 | 1.7 | 1.7 | 0.00 | 0.06 | 0.06 | 88 | 1023.0 |
| 20260905181301 | 62 | 82 | 0.9 | 0.9 | 0.00 | 0.06 | 0.06 | 88 | 1022.9 |
| 20260905180800 | 62 | 67 | 0.9 | 1.7 | 0.00 | 0.06 | 0.06 | 87 | 1022.9 |
| 20260905180256 | 62 | 76 | 0.9 | 0.9 | 0.00 | 0.06 | 0.06 | 91 | 1023.1 |
| 20260905175755 | 62 | 89 | 0.0 | 0.0 | 0.00 | 0.06 | 0.06 | 92 | 1023.1 |
| 20260905175250 | 62 | 88 | 0.0 | 0.0 | 0.00 | 0.06 | 0.06 | 92 | 1023.5 |
| 20260905174745 | 62 | 88 | 0.0 | 0.0 | 0.05 | 0.06 | 0.06 | 91 | 1023.6 |
| 20260905174241 | 62 | 89 | 0.0 | 0.0 | 0.05 | 0.06 | 0.06 | 91 | 1023.7 |
| 20260905173738 | 62 | 89 | 0.0 | 0.0 | 0.00 | 0.05 | 0.05 | 90 | 1023.9 |
| 20260905173233 | 62 | 84 | 0.0 | 0.0 | 0.00 | 0.05 | 0.05 | 90 | 1024.3 |
| 20260905172733 | 61 | 93 | 0.0 | 0.0 | 0.00 | 0.05 | 0.05 | 90 | 1024.6 |
| 20260905172232 | 61 | 284 | 0.9 | 1.7 | 0.07 | 0.05 | 0.05 | 90 | 1024.6 |
| 20260905171729 | 61 | 92 | 0.9 | 0.9 | 0.07 | 0.05 | 0.05 | 89 | 1025.0 |
| 20260905171225 | 62 | 100 | 0.0 | 0.0 | 0.00 | 0.04 | 0.04 | 89 | 1024.9 |
| 20260905170721 | 62 | 107 | 0.9 | 1.7 | 0.00 | 0.04 | 0.04 | 89 | 1024.9 |
| 20260905170222 | 62 | 76 | 0.9 | 0.9 | 0.17 | 0.04 | 0.04 | 90 | 1025.2 |
| 20260905165721 | 63 | 91 | 0.0 | 0.0 | 0.24 | 0.04 | 0.04 | 91 | 1025.0 |
| 20260905165217 | 64 | 91 | 0.0 | 0.9 | 0.12 | 0.02 | 0.02 | 90 | 1025.1 |
| 20260905164717 | 67 | 63 | 2.6 | 3.5 | 0.00 | 0.00 | 0.00 | 86 | 1025.6 |
| 20260905164217 | 69 | 12 | 9.6 | 13.9 | 0.00 | 0.00 | 0.00 | 83 | 1025.7 |
| 20260905163713 | 70 | 327 | 0.0 | 0.9 | 0.00 | 0.00 | 0.00 | 86 | 1025.2 |
| 20260905163209 | 70 | 74 | 0.9 | 1.7 | 0.00 | 0.00 | 0.00 | 85 | 1024.8 |
| 20260905162705 | 70 | 68 | 0.9 | 1.7 | 0.00 | 0.00 | 0.00 | 84 | 1024.9 |
| 20260905162204 | 71 | 78 | 2.6 | 3.5 | 0.00 | 0.00 | 0.00 | 82 | 1024.9 |
| 20260905161659 | 72 | 25 | 3.5 | 5.2 | 0.00 | 0.00 | 0.00 | 80 | 1024.9 |
| 20260905161157 | 72 | 279 | 1.7 | 2.6 | 0.00 | 0.00 | 0.00 | 79 | 1024.8 |
| 20260905160656 | 72 | 73 | 0.9 | 0.9 | 0.00 | 0.00 | 0.00 | 80 | 1024.6 |
| 20260905160156 | 72 | 67 | 0.9 | 0.9 | 0.00 | 0.00 | 0.00 | 79 | 1024.4 |
| 20260905155656 | 71 | 85 | 0.0 | 0.9 | 0.00 | 0.00 | 0.00 | 81 | 1024.5 |
| 20260905155155 | 71 | 101 | 0.9 | 1.7 | 0.00 | 0.00 | 0.00 | 81 | 1024.8 |
| 20260905154649 | 71 | 285 | 3.5 | 3.5 | 0.00 | 0.00 | 0.00 | 83 | 1024.6 |
| 20260905154145 | 71 | 72 | 1.7 | 1.7 | 0.00 | 0.00 | 0.00 | 85 | 1024.5 |
| 20260905153641 | 71 | 82 | 0.9 | 1.7 | 0.00 | 0.00 | 0.00 | 83 | 1024.9 |
| 20260905153136 | 71 | 347 | 1.7 | 2.6 | 0.00 | 0.00 | 0.00 | 84 | 1024.9 |
| 20260905152631 | 71 | 287 | 1.7 | 3.5 | 0.00 | 0.00 | 0.00 | 84 | 1025.0 |
| 20260905152126 | 71 | 2 | 2.6 | 3.5 | 0.00 | 0.00 | 0.00 | 83 | 1024.5 |
| 20260905151620 | 71 | 20 | 3.5 | 6.1 | 0.00 | 0.00 | 0.00 | 83 | 1024.6 |
| 20260905151116 | 71 | 294 | 5.2 | 7.0 | 0.00 | 0.00 | 0.00 | 84 | 1024.4 |
| 20260905150612 | 70 | 74 | 1.7 | 1.7 | 0.00 | 0.00 | 0.00 | 86 | 1024.3 |
| 20260905150110 | 71 | 40 | 1.7 | 1.7 | 0.00 | 0.00 | 0.00 | 86 | 1024.4 |
| 20260905145609 | 71 | 60 | 0.9 | 0.9 | 0.00 | 0.00 | 0.00 | 86 | 1024.4 |
| 20260905145108 | 70 | 43 | 0.9 | 0.9 | 0.00 | 0.00 | 0.00 | 86 | 1024.3 |
| 20260905144603 | 70 | 34 | 1.7 | 1.7 | 0.00 | 0.00 | 0.00 | 86 | 1024.2 |
| 20260905144102 | 70 | 74 | 0.9 | 1.7 | 0.00 | 0.00 | 0.00 | 86 | 1024.1 |
| 20260905143601 | 70 | 351 | 2.6 | 2.6 | 0.00 | 0.00 | 0.00 | 86 | 1024.2 |
| 20260905143057 | 70 | 63 | 1.7 | 1.7 | 0.00 | 0.00 | 0.00 | 86 | 1024.4 |
| 20260905142555 | 70 | 334 | 1.7 | 2.6 | 0.00 | 0.00 | 0.00 | 86 | 1024.6 |
| 20260905142050 | 70 | 329 | 3.5 | 3.5 | 0.00 | 0.00 | 0.00 | 85 | 1024.8 |
| 20260905141550 | 70 | 267 | 5.2 | 6.1 | 0.00 | 0.00 | 0.00 | 85 | 1024.5 |
| 20260905141047 | 70 | 91 | 0.0 | 0.9 | 0.00 | 0.00 | 0.00 | 85 | 1024.4 |
| 20260905140542 | 70 | 359 | 1.7 | 2.6 | 0.00 | 0.00 | 0.00 | 84 | 1024.5 |
| 20260905140041 | 70 | 236 | 4.3 | 6.1 | 0.00 | 0.00 | 0.00 | 85 | 1024.4 |
| 20260905135536 | 70 | 340 | 1.7 | 1.7 | 0.00 | 0.00 | 0.00 | 84 | 1024.6 |
| 20260905135037 | 70 | 93 | 0.0 | 0.0 | 0.00 | 0.00 | 0.00 | 85 | 1024.1 |
| 20260905134537 | 70 | 60 | 3.5 | 3.5 | 0.00 | 0.00 | 0.00 | 85 | 1024.4 |
| 20260905134035 | 70 | 66 | 3.5 | 5.2 | 0.00 | 0.00 | 0.00 | 84 | 1024.3 |
| 20260905133531 | 70 | 344 | 2.6 | 3.5 | 0.00 | 0.00 | 0.00 | 85 | 1024.3 |
| 20260905133031 | 69 | 326 | 2.6 | 5.2 | 0.00 | 0.00 | 0.00 | 85 | 1024.2 |
| 20260905132531 | 69 | 16 | 2.6 | 3.5 | 0.00 | 0.00 | 0.00 | 85 | 1024.4 |
| 20260905132025 | 69 | 60 | 1.7 | 2.6 | 0.00 | 0.00 | 0.00 | 86 | 1024.3 |
| 20260905131521 | 69 | 74 | 4.3 | 7.0 | 0.00 | 0.00 | 0.00 | 86 | 1024.5 |
| 20260905131016 | 69 | 353 | 3.5 | 3.5 | 0.00 | 0.00 | 0.00 | 86 | 1024.5 |
| 20260905130515 | 69 | 253 | 1.7 | 1.7 | 0.00 | 0.00 | 0.00 | 86 | 1024.6 |
| 20260905130011 | 69 | 290 | 2.6 | 2.6 | 0.00 | 0.00 | 0.00 | 86 | 1024.6 |
| 20260905125505 | 69 | 284 | 4.3 | 7.0 | 0.00 | 0.00 | 0.00 | 86 | 1024.6 |
| 20260905125000 | 69 | 8 | 2.6 | 2.6 | 0.00 | 0.00 | 0.00 | 86 | 1024.8 |
| 20260905124457 | 69 | 38 | 2.6 | 2.6 | 0.00 | 0.00 | 0.00 | 86 | 1024.5 |
| 20260905123952 | 68 | 33 | 2.6 | 3.5 | 0.00 | 0.00 | 0.00 | 87 | 1024.4 |
| 20260905123448 | 68 | 331 | 2.6 | 3.5 | 0.00 | 0.00 | 0.00 | 87 | 1024.5 |
| 20260905122949 | 68 | 41 | 1.7 | 1.7 | 0.00 | 0.00 | 0.00 | 87 | 1024.5 |
| 20260905122449 | 68 | 37 | 1.7 | 2.6 | 0.00 | 0.00 | 0.00 | 88 | 1024.5 |
| 20260905121944 | 68 | 64 | 0.9 | 0.9 | 0.00 | 0.00 | 0.00 | 88 | 1024.8 |
| 20260905121439 | 68 | 67 | 0.9 | 0.9 | 0.00 | 0.00 | 0.00 | 88 | 1024.4 |
| 20260905120939 | 68 | 81 | 0.0 | 0.0 | 0.00 | 0.00 | 0.00 | 88 | 1024.3 |
| 20260905120433 | 68 | 57 | 1.7 | 1.7 | 0.00 | 0.00 | 0.00 | 88 | 1024.4 |
| 20260905115928 | 67 | 30 | 3.5 | 3.5 | 0.00 | 0.00 | 0.00 | 88 | 1024.4 |
| 20260905115427 | 67 | 39 | 0.9 | 0.9 | 0.00 | 0.00 | 0.00 | 88 | 1024.2 |
| 20260905114923 | 67 | 34 | 1.7 | 2.6 | 0.00 | 0.00 | 0.00 | 88 | 1024.2 |
| 20260905114422 | 67 | 59 | 1.7 | 1.7 | 0.00 | 0.00 | 0.00 | 88 | 1024.1 |
| 20260905113921 | 67 | 64 | 0.9 | 0.9 | 0.00 | 0.00 | 0.00 | 88 | 1024.1 |
| 20260905113417 | 67 | 277 | 1.7 | 2.6 | 0.00 | 0.00 | 0.00 | 88 | 1024.1 |
| 20260905112912 | 67 | 45 | 1.7 | 1.7 | 0.00 | 0.00 | 0.00 | 87 | 1024.1 |
| 20260905112408 | 67 | 10 | 1.7 | 2.6 | 0.00 | 0.00 | 0.00 | 87 | 1023.9 |
| 20260905111903 | 68 | 70 | 0.0 | 0.0 | 0.00 | 0.00 | 0.00 | 87 | 1024.2 |
| 20260905111402 | 67 | 85 | 1.7 | 1.7 | 0.00 | 0.00 | 0.00 | 87 | 1024.1 |
| 20260905110902 | 67 | 292 | 0.9 | 1.7 | 0.00 | 0.00 | 0.00 | 88 | 1024.1 |
| 20260905110356 | 67 | 318 | 3.5 | 3.5 | 0.00 | 0.00 | 0.00 | 88 | 1023.8 |
| 20260905105851 | 67 | 60 | 0.9 | 0.9 | 0.00 | 0.00 | 0.00 | 87 | 1023.8 |
| 20260905105350 | 67 | 48 | 1.7 | 2.6 | 0.00 | 0.00 | 0.00 | 87 | 1023.8 |
| 20260905104844 | 67 | 62 | 0.9 | 1.7 | 0.00 | 0.00 | 0.00 | 88 | 1023.6 |
| 20260905104341 | 67 | 38 | 0.9 | 0.9 | 0.00 | 0.00 | 0.00 | 87 | 1023.4 |
| 20260905103841 | 68 | 70 | 3.5 | 5.2 | 0.00 | 0.00 | 0.00 | 87 | 1023.7 |
| 20260905103336 | 68 | 329 | 1.7 | 1.7 | 0.00 | 0.00 | 0.00 | 87 | 1023.6 |
| 20260905102832 | 68 | 70 | 0.0 | 0.0 | 0.00 | 0.00 | 0.00 | 87 | 1023.6 |
| 20260905102329 | 68 | 50 | 0.9 | 1.7 | 0.00 | 0.00 | 0.00 | 87 | 1023.7 |
| 20260905101828 | 68 | 64 | 0.0 | 0.0 | 0.00 | 0.00 | 0.00 | 87 | 1023.6 |
| 20260905101327 | 68 | 86 | 0.9 | 0.9 | 0.00 | 0.00 | 0.00 | 87 | 1023.8 |
| 20260905100821 | 68 | 52 | 1.7 | 1.7 | 0.00 | 0.00 | 0.00 | 87 | 1023.7 |
| 20260905100318 | 68 | 29 | 1.7 | 2.6 | 0.00 | 0.00 | 0.00 | 86 | 1023.6 |
| 20260905095817 | 68 | 63 | 0.9 | 0.9 | 0.00 | 0.00 | 0.00 | 86 | 1023.6 |
| 20260905095316 | 68 | 68 | 0.9 | 0.9 | 0.00 | 0.00 | 0.00 | 86 | 1023.7 |
| 20260905094811 | 68 | 3 | 1.7 | 1.7 | 0.00 | 0.00 | 0.00 | 86 | 1023.5 |
| 20260905094307 | 68 | 69 | 0.9 | 1.7 | 0.00 | 0.00 | 0.00 | 86 | 1023.5 |
| 20260905093806 | 68 | 69 | 0.0 | 0.0 | 0.00 | 0.00 | 0.00 | 86 | 1023.5 |
| 20260905093302 | 68 | 80 | 0.0 | 0.0 | 0.00 | 0.00 | 0.00 | 86 | 1023.5 |
| 20260905092757 | 68 | 64 | 0.0 | 0.9 | 0.00 | 0.00 | 0.00 | 86 | 1023.4 |
| 20260905092253 | 68 | 55 | 0.9 | 0.9 | 0.00 | 0.00 | 0.00 | 86 | 1023.4 |
| 20260905091752 | 68 | 62 | 0.0 | 0.0 | 0.00 | 0.00 | 0.00 | 86 | 1023.6 |
| 20260905091247 | 68 | 72 | 0.0 | 0.0 | 0.00 | 0.00 | 0.00 | 86 | 1023.6 |
| 20260905090746 | 68 | 49 | 0.9 | 0.9 | 0.00 | 0.00 | 0.00 | 85 | 1023.5 |
| 20260905090242 | 68 | 42 | 0.9 | 0.9 | 0.00 | 0.00 | 0.00 | 85 | 1023.7 |
| 20260905085742 | 68 | 67 | 0.0 | 0.0 | 0.00 | 0.00 | 0.00 | 85 | 1023.6 |
| 20260905085241 | 68 | 62 | 0.9 | 0.9 | 0.00 | 0.00 | 0.00 | 85 | 1023.6 |
| 20260905084742 | 68 | 66 | 0.0 | 0.0 | 0.00 | 0.00 | 0.00 | 85 | 1023.6 |
| 20260905084241 | 68 | 70 | 0.0 | 0.0 | 0.00 | 0.00 | 0.00 | 84 | 1023.7 |
| 20260905083737 | 68 | 67 | 0.0 | 0.0 | 0.00 | 0.00 | 0.00 | 85 | 1023.8 |
| 20260905083232 | 68 | 61 | 0.0 | 0.0 | 0.00 | 0.00 | 0.00 | 85 | 1024.1 |
| 20260905082728 | 68 | 54 | 0.0 | 0.0 | 0.00 | 0.00 | 0.00 | 84 | 1023.9 |
| 20260905082224 | 68 | 58 | 0.9 | 0.9 | 0.00 | 0.00 | 0.00 | 84 | 1023.9 |
| 20260905081724 | 68 | 68 | 0.0 | 0.0 | 0.00 | 0.00 | 0.00 | 84 | 1023.8 |
| 20260905081219 | 68 | 70 | 0.0 | 0.0 | 0.00 | 0.00 | 0.00 | 83 | 1023.9 |
| 20260905080719 | 68 | 68 | 0.0 | 0.0 | 0.00 | 0.00 | 0.00 | 84 | 1023.6 |
| 20260905080218 | 68 | 56 | 0.9 | 0.9 | 0.00 | 0.00 | 0.00 | 85 | 1024.2 |
| 20260905075718 | 68 | 61 | 0.0 | 0.0 | 0.00 | 0.00 | 0.00 | 85 | 1024.2 |
| 20260905075217 | 68 | 61 | 0.0 | 0.0 | 0.00 | 0.00 | 0.00 | 85 | 1024.4 |
| 20260905074716 | 68 | 61 | 0.0 | 0.0 | 0.00 | 0.00 | 0.00 | 85 | 1024.1 |
| 20260905074212 | 68 | 61 | 0.0 | 0.0 | 0.00 | 0.00 | 0.00 | 85 | 1024.2 |
| 20260905073708 | 68 | 56 | 0.0 | 0.0 | 0.00 | 0.00 | 0.00 | 85 | 1024.3 |
| 20260905073203 | 68 | 59 | 0.0 | 0.0 | 0.00 | 0.00 | 0.00 | 86 | 1024.4 |
| 20260905072702 | 68 | 63 | 0.0 | 0.0 | 0.00 | 0.00 | 0.00 | 85 | 1024.3 |